Kekaha, HI

5:30 PM HST on February 09, 2016 (GMT -1000)
Barking Sands PMRF

Weather History for PHBK - August, 2013

Change the Weather History Date:

Thursday, August 8, 2013

  Actual Average Record
Temperature  
Mean Temperature 80 °F -  
Max Temperature 86 °F 88 °F 92 °F (1958)
Min Temperature 73 °F 69 °F 66 °F (1952)
Cooling Degree Days 14    
Growing Degree Days 30 (Base 50)    
Moisture  
Dew Point 64 °F    
Average Humidity 60    
Maximum Humidity 66    
Minimum Humidity 49    
Precipitation  
Precipitation 0.00 in - - ()
Sea Level Pressure  
Sea Level Pressure 30.05 in    
Wind  
Wind Speed 6 mph (NNE)    
Max Wind Speed 13 mph    
Max Gust Speed -    
Visibility 10 miles    
Events      
Averages and records for this station are not official NWS values.
T = Trace of Precipitation, MM = Missing Value Source: NWS Daily Summary

Daily Weather History Graph

Daily Weather History Graph

Search for Another Location

Airport or City:

Trip Planner

Search our weather history database for the weather conditions in past years. The results will help you decide how hot, cold, wet, or windy it might be!

Date:

Astronomy

Aug. 08, 2013 Rise Set
Actual Time 6:14 AM HST 7:14 PM HST
Civil Twilight 5:50 AM HST 7:38 PM HST
Nautical Twilight 5:22 AM HST 8:06 PM HST
Astronomical Twilight 4:54 AM HST 8:34 PM HST
Moon 7:51 AM HST (8/8) 8:24 PM HST (8/8)
Length of Visible Light 13h 47m
Length of Day
13h 00m
Waxing Crescent, 4% of the Moon is Illuminated
Aug 8
Waxing Crescent
Aug 14
First Quarter
Aug 20
Full
Aug 27
Last Quarter
Sep 5
New

Hourly Weather History & Observations

Time (HST) Temp. Heat Index Dew Point Humidity Pressure Visibility Wind Dir Wind Speed Gust Speed Precip Events Conditions
12:56 AM 73.9 °F - 59.0 °F 59% 30.05 in 10.0 mi East 3.5 mph - N/A   Clear
1:56 AM 73.0 °F - 59.0 °F 61% 30.04 in 10.0 mi East 4.6 mph - N/A   Clear
2:56 AM 73.0 °F - 60.1 °F 64% 30.02 in 10.0 mi ENE 4.6 mph - N/A   Clear
3:56 AM 73.0 °F - 61.0 °F 66% 30.02 in 10.0 mi East 3.5 mph - N/A   Clear
4:56 AM 73.0 °F - 61.0 °F 66% 30.03 in 10.0 mi East 4.6 mph - N/A   Clear
5:56 AM 73.0 °F - 61.0 °F 66% 30.03 in 10.0 mi ENE 6.9 mph - N/A   Clear
6:56 AM 75.0 °F - 61.0 °F 62% 30.05 in 10.0 mi ENE 4.6 mph - N/A   Clear
7:56 AM 79.0 °F - 64.9 °F 62% 30.06 in 10.0 mi Calm Calm - N/A   Clear
8:56 AM 81.0 °F 83.0 °F 66.0 °F 60% 30.07 in 10.0 mi WSW 4.6 mph - N/A   Clear
9:56 AM 81.0 °F 83.3 °F 66.9 °F 62% 30.07 in 10.0 mi West 6.9 mph - N/A   Clear
10:56 AM 82.9 °F 85.4 °F 66.9 °F 58% 30.07 in 10.0 mi NNW 9.2 mph - N/A   Clear
11:56 AM 84.0 °F 87.0 °F 68.0 °F 58% 30.06 in 10.0 mi NNW 11.5 mph - N/A   Clear
12:56 PM 84.0 °F 86.5 °F 66.9 °F 56% 30.06 in 10.0 mi WNW 9.2 mph - N/A   Scattered Clouds
1:56 PM 84.9 °F 88.2 °F 68.0 °F 57% 30.04 in 10.0 mi West 9.2 mph - N/A   Partly Cloudy
2:56 PM 86.0 °F 87.6 °F 64.9 °F 49% 30.03 in 10.0 mi SW 11.5 mph - N/A   Clear
3:56 PM 84.9 °F 88.2 °F 68.0 °F 57% 30.01 in 10.0 mi WSW 12.7 mph - N/A   Clear
4:56 PM 84.0 °F 87.0 °F 68.0 °F 58% 30.00 in 10.0 mi NNW 8.1 mph - N/A   Clear
5:56 PM 84.0 °F 87.0 °F 68.0 °F 58% 30.01 in 10.0 mi NNW 11.5 mph - N/A   Clear
6:56 PM 81.0 °F 83.0 °F 66.0 °F 60% 30.02 in 10.0 mi SSW 4.6 mph - N/A   Mostly Cloudy
7:56 PM 80.1 °F 81.9 °F 64.9 °F 60% 30.04 in 10.0 mi South 4.6 mph - N/A   Clear
8:56 PM 78.1 °F - 66.0 °F 66% 30.06 in 10.0 mi NNE 4.6 mph - N/A   Clear
9:56 PM 75.9 °F - 62.1 °F 62% 30.08 in 10.0 mi SSE 4.6 mph - N/A   Clear
10:56 PM 75.0 °F - 60.1 °F 60% 30.09 in 10.0 mi Calm Calm - N/A   Clear
11:56 PM 75.9 °F - 59.0 °F 56% 30.08 in 10.0 mi NE 4.6 mph - N/A   Clear